Aurora, CO

11:51 AM MST on February 10, 2016 (GMT -0700)
Denver International

Weather History for KDEN - November, 2014

Change the Weather History Date:

Thursday, November 20, 2014

  Actual Average Record
Temperature  
Mean Temperature 35 °F 36 °F  
Max Temperature 49 °F 50 °F 72 °F (1897)
Min Temperature 21 °F 22 °F 1 °F (1975)
Degree Days  
Heating Degree Days 30 29  
Month to date heating degree days 626 490  
Since 1 July heating degree days 1023 1071  
Cooling Degree Days 0 0  
Month to date cooling degree days 0 0  
Year to date cooling degree days 701 769  
Moisture  
Dew Point 22 °F    
Average Humidity 57    
Maximum Humidity 81    
Minimum Humidity 33    
Precipitation  
Precipitation 0.00 in 0.02 in 0.95 in (1979)
Month to date precipitation 0.76 0.45  
Year to date precipitation 18.18 13.79  
Snow  
Snow 0.00 in - - ()
Month to date snowfall 4  
Since 1 July snowfall 4  
Since 1 September snowfall 4  
Snow Depth T in    
Sea Level Pressure  
Sea Level Pressure 29.98 in    
Wind  
Wind Speed 6 mph (WSW)    
Max Wind Speed 12 mph    
Max Gust Speed 14 mph    
Visibility 10 miles    
Events      
T = Trace of Precipitation, MM = Missing Value Source: NWS Daily Summary

Daily Weather History Graph

Daily Weather History Graph

Search for Another Location

Airport or City:

Trip Planner

Search our weather history database for the weather conditions in past years. The results will help you decide how hot, cold, wet, or windy it might be!

Date:

Astronomy

Nov. 20, 2014 Rise Set
Actual Time 6:49 AM MST 4:39 PM MST
Civil Twilight 6:19 AM MST 5:08 PM MST
Nautical Twilight 5:46 AM MST 5:41 PM MST
Astronomical Twilight 5:14 AM MST 6:13 PM MST
Moon 4:46 AM MST (11/20) 3:44 PM MST (11/20)
Length of Visible Light 10h 48m
Length of Day
9h 49m
Waning Crescent, 3% of the Moon is Illuminated
Nov 20
Waning Crescent
Nov 22
New
Nov 29
First Quarter
Dec 6
Full
Dec 14
Last Quarter

Hourly Weather History & Observations

Time (MST) Temp. Windchill Dew Point Humidity Pressure Visibility Wind Dir Wind Speed Gust Speed Precip Events Conditions
12:53 AM 27.0 °F 20.5 °F 19.9 °F 75% 29.98 in 10.0 mi SW 5.8 mph - N/A   Partly Cloudy
1:53 AM 25.0 °F 18.1 °F 19.0 °F 78% 29.99 in 10.0 mi WSW 5.8 mph - N/A   Partly Cloudy
2:53 AM 28.9 °F 22.8 °F 19.9 °F 69% 29.97 in 10.0 mi West 5.8 mph - N/A   Partly Cloudy
3:53 AM 23.0 °F 18.4 °F 17.1 °F 78% 30.01 in 10.0 mi South 3.5 mph - N/A   Partly Cloudy
4:53 AM 27.0 °F 19.5 °F 18.0 °F 69% 30.01 in 10.0 mi WSW 6.9 mph - N/A   Partly Cloudy
5:53 AM 23.0 °F 18.4 °F 17.1 °F 78% 30.04 in 10.0 mi South 3.5 mph - N/A   Partly Cloudy
6:53 AM 27.0 °F 20.5 °F 18.0 °F 69% 30.03 in 10.0 mi SW 5.8 mph - N/A   Scattered Clouds
7:53 AM 26.1 °F 18.4 °F 19.0 °F 75% 30.04 in 10.0 mi South 6.9 mph - N/A   Scattered Clouds
8:53 AM 34.0 °F - 26.1 °F 73% 30.03 in 10.0 mi Calm Calm - N/A   Scattered Clouds
9:53 AM 43.0 °F 39.5 °F 16.0 °F 34% 29.99 in 10.0 mi East 5.8 mph - N/A   Scattered Clouds
10:53 AM 45.0 °F 41.2 °F 23.0 °F 42% 29.99 in 10.0 mi NE 6.9 mph - N/A   Scattered Clouds
11:53 AM 46.9 °F - 23.0 °F 39% 29.95 in 10.0 mi NE 8.1 mph - N/A   Scattered Clouds
12:53 PM 48.0 °F - 24.1 °F 39% 29.94 in 10.0 mi ENE 9.2 mph - N/A   Scattered Clouds
1:53 PM 46.0 °F 42.5 °F 23.0 °F 40% 29.94 in 10.0 mi ENE 6.9 mph - N/A   Mostly Cloudy
2:53 PM 46.9 °F - 23.0 °F 39% 29.93 in 10.0 mi NNW 4.6 mph - N/A   Mostly Cloudy
3:53 PM 44.1 °F 40.8 °F 25.0 °F 47% 29.96 in 10.0 mi North 5.8 mph - N/A   Mostly Cloudy
4:53 PM 41.0 °F 36.4 °F 26.1 °F 55% 29.96 in 10.0 mi North 6.9 mph - N/A   Mostly Cloudy
5:53 PM 43.0 °F 39.5 °F 24.1 °F 47% 29.99 in 10.0 mi Variable 5.8 mph - N/A   Mostly Cloudy
6:53 PM 39.0 °F 34.0 °F 26.1 °F 60% 30.00 in 10.0 mi WSW 6.9 mph - N/A   Mostly Cloudy
7:53 PM 37.0 °F 32.4 °F 26.1 °F 65% 30.01 in 10.0 mi SW 5.8 mph - N/A   Mostly Cloudy
8:53 PM 37.9 °F - 26.1 °F 62% 29.97 in 10.0 mi Calm Calm - N/A   Mostly Cloudy
9:53 PM 37.0 °F 32.4 °F 26.1 °F 65% 29.94 in 10.0 mi SW 5.8 mph - N/A   Mostly Cloudy
10:53 PM 37.0 °F 32.4 °F 23.0 °F 57% 29.93 in 10.0 mi SW 5.8 mph - N/A   Scattered Clouds
11:53 PM 35.1 °F 30.1 °F 24.1 °F 64% 29.93 in 10.0 mi WSW 5.8 mph - N/A   Scattered Clouds